EDT,Max TemperatureF,Mean TemperatureF,Min TemperatureF,Max Dew PointF,MeanDew PointF,Min DewpointF,Max Humidity, Mean Humidity, Min Humidity, Max Sea Level PressureIn, Mean Sea Level PressureIn, Min Sea Level PressureIn, Max VisibilityMiles, Mean VisibilityMiles, Min VisibilityMiles, Max Wind SpeedMPH, Mean Wind SpeedMPH, Max Gust SpeedMPH,PrecipitationIn, CloudCover, Events, WindDirDegrees
2013-4-1,46,37,27,37,32,15,100,84,61,29.75,29.58,29.45,10,6,0,13,4,21,0.37,7,Fog-Rain-Snow,262
2013-4-2,30,22,17,20,14,8,84,66,43,29.80,29.73,29.66,10,7,0,14,8,32,0.03,7,Fog-Snow,288
2013-4-3,37,30,23,21,13,6,75,56,33,30.09,29.88,29.74,10,9,4,14,8,29,0.00,7,Snow,293
2013-4-4,48,36,25,19,10,6,54,35,18,30.20,30.07,29.92,10,10,10,13,7,25,0.00,0,,257
2013-4-5,48,37,28,28,23,14,87,63,27,29.91,29.80,29.74,10,8,0,15,6,25,0.01,6,Fog-Snow,319
2013-4-6,35,26,19,16,9,0,80,54,25,30.33,30.08,29.86,10,8,1,20,9,31,0.00,4,Snow,324
2013-4-7,52,36,21,27,18,13,82,50,28,30.31,30.07,29.86,10,10,10,23,5,30,0.00,5,,149
2013-4-8,52,40,30,34,30,26,82,63,38,30.13,30.04,29.85,10,10,10,12,5,22,0.00,6,,300
2013-4-9,46,38,32,41,37,27,93,86,76,30.06,29.94,29.84,10,7,2,13,4,23,0.30,7,Rain,302
2013-4-10,51,42,35,40,36,33,100,85,54,29.99,29.95,29.90,10,7,2,7,1,16,0.08,8,Rain,322
2013-4-11,43,35,28,34,18,7,93,53,25,30.20,30.05,29.91,10,10,7,14,4,18,0.00,3,,337
2013-4-12,33,29,26,27,22,12,86,72,44,30.23,30.08,29.89,10,6,0,14,5,20,0.34,8,Rain-Snow,141
2013-4-13,46,38,30,36,30,28,93,83,58,29.90,29.83,29.77,10,8,1,8,0,,0.14,8,Rain-Snow,330
2013-4-14,46,38,30,36,31,27,100,86,50,30.22,29.93,29.85,10,6,0,9,1,18,0.09,7,Fog-Rain-Snow,302
2013-4-15,57,39,21,32,26,20,92,63,29,30.37,30.31,30.24,10,10,10,13,2,20,0.00,0,,163
2013-4-16,59,42,28,52,39,26,92,76,50,30.32,30.11,29.92,10,10,6,16,4,25,0.06,6,Rain,185
2013-4-17,55,41,28,41,27,22,78,53,30,30.38,30.21,30.02,10,10,10,14,7,22,0.00,2,,323
2013-4-18,51,37,24,34,25,16,92,60,29,30.45,30.29,30.02,10,10,10,17,5,28,0.00,5,Rain,145
2013-4-19,75,60,44,58,49,34,75,58,40,30.00,29.76,29.49,10,10,6,17,8,30,0.02,3,Rain,186
2013-4-20,54,48,36,55,34,17,94,64,36,30.19,29.78,29.60,10,10,6,13,8,31,0.22,7,Rain,295
2013-4-21,46,34,23,23,17,10,81,55,24,30.73,30.48,30.22,10,9,1,17,7,22,0.00,4,Snow,319
2013-4-22,53,34,17,25,15,10,89,50,20,30.79,30.71,30.63,10,10,10,17,4,22,0.00,0,,153
2013-4-23,46,34,21,36,29,17,88,69,49,30.62,30.42,30.22,10,10,10,10,5,16,0.00,5,,170
2013-4-24,73,56,39,49,41,36,93,73,35,30.19,29.96,29.66,10,10,3,12,2,,0.00,6,,166
2013-4-25,60,44,28,47,31,20,81,54,29,30.35,30.03,29.67,10,10,10,15,8,28,0.00,3,Rain,278
2013-4-26,57,39,21,33,25,17,89,61,25,30.45,30.41,30.35,10,10,10,9,1,,0.00,3,Rain,190
2013-4-27,63,44,24,33,26,19,92,57,20,30.46,30.39,30.29,10,10,10,7,1,,0.00,2,,355
2013-4-28,70,48,25,32,28,22,89,53,23,30.36,30.28,30.19,10,10,10,12,2,18,0.00,0,,157
2013-4-29,71,50,30,41,34,28,92,59,26,30.26,30.21,30.15,10,10,10,13,3,22,0.00,0,,165
2013-4-30,73,52,30,38,34,28,92,58,27,30.35,30.29,30.25,10,10,9,8,1,,0.00,1,,172